This is the latest recevied weather packets stored in our database for station/object F1ZUI-13. If no packets are shown the sender has not sent any weather packets the latest 1 day(s).
| Time | Temp. | Humidity | Pressure | Rain* | Wind** | Luminosity | Snow |
|---|---|---|---|---|---|---|---|
| 1777993753 | 11.67° C | - | 1015 hPa | - | 4.02 m/s, 315° | - | - |
| 1777993140 | 11.67° C | - | 1015 hPa | - | 2.24 m/s, 225° | - | - |
| 1777992526 | 12.22° C | - | 1014.9 hPa | - | 2.24 m/s, 270° | - | - |
| 1777991912 | 11.11° C | - | 1014.9 hPa | - | 4.02 m/s, 315° | - | - |
| 1777991299 | 11.11° C | - | 1014.6 hPa | - | 4.02 m/s, 0° | - | - |
| 1777990685 | 12.78° C | - | 1014.6 hPa | - | 6.71 m/s, 0° | - | - |
| 1777990072 | 13.89° C | - | 1014.6 hPa | - | 3.58 m/s, 0° | - | - |
| 1777988844 | 15° C | - | 1014.8 hPa | - | 0.89 m/s, 0° | - | - |
| 1777988231 | 13.89° C | - | 1014.8 hPa | - | 2.68 m/s, 45° | - | - |
| 1777987617 | 13.89° C | - | 1014.8 hPa | - | 3.58 m/s, 0° | - | - |
| 1777987003 | 14.44° C | - | 1014.8 hPa | - | 2.24 m/s, 0° | - | - |
| 1777986390 | 14.44° C | - | 1014.8 hPa | - | 3.13 m/s, 0° | - | - |
| 1777985776 | 11.67° C | - | 1014.8 hPa | - | 4.02 m/s, 0° | - | - |
| 1777985163 | 11.67° C | - | 1014.7 hPa | - | 4.02 m/s, 0° | - | - |
| 1777984549 | 11.11° C | - | 1014.8 hPa | - | 4.02 m/s, 315° | - | - |
| 1777983935 | 10.56° C | - | 1014.7 hPa | - | 3.13 m/s, 45° | - | - |
| 1777983322 | 10° C | - | 1014.5 hPa | - | 7.6 m/s, 0° | - | - |
| 1777982708 | 12.22° C | - | 1014.8 hPa | - | 6.26 m/s, 270° | - | - |
| 1777982095 | 15.56° C | - | 1014.9 hPa | - | 2.24 m/s, 0° | - | - |
| 1777980867 | 16.11° C | - | 1015.1 hPa | - | 3.13 m/s, 270° | - | - |
| 1777980254 | 15.56° C | - | 1015.1 hPa | - | 1.79 m/s, 315° | - | - |
| 1777979643 | 14.44° C | - | 1015.2 hPa | - | 0.89 m/s, 0° | - | - |
| 1777979026 | 13.89° C | - | 1015.3 hPa | - | 1.79 m/s, 45° | - | - |
| 1777977185 | 15.56° C | - | 1015.2 hPa | - | 2.68 m/s, 270° | - | - |
| 1777976572 | 16.11° C | - | 1015.2 hPa | - | 3.58 m/s, 270° | - | - |
* Rain since midnight (hover to see other rain measurements)
** Current wind speed in m/s (hover to see current wind gust speed)